Glenwood, MN

9:03 AM CST on February 11, 2016 (GMT -0600)
Glenwood Municipal

Weather History for KGHW - October, 2012

Change the Weather History Date:

Wednesday, October 3, 2012

  Actual Average Record
Temperature  
Mean Temperature 61 °F -  
Max Temperature 78 °F 64 °F 84 °F (1953)
Min Temperature 44 °F 39 °F 19 °F (1989)
Degree Days  
Heating Degree Days 4    
Growing Degree Days 11 (Base 50)    
Moisture  
Dew Point 30 °F    
Average Humidity 35    
Maximum Humidity 58    
Minimum Humidity 16    
Precipitation  
Precipitation 0.00 in - - ()
Sea Level Pressure  
Sea Level Pressure 29.83 in    
Wind  
Wind Speed 7 mph (ESE)    
Max Wind Speed 17 mph    
Max Gust Speed 23 mph    
Visibility 10 miles    
Events      
Averages and records for this station are not official NWS values.
T = Trace of Precipitation, MM = Missing Value Source: NWS Daily Summary

Daily Weather History Graph

Daily Weather History Graph

Search for Another Location

Airport or City:

Trip Planner

Search our weather history database for the weather conditions in past years. The results will help you decide how hot, cold, wet, or windy it might be!

Date:

Astronomy

Oct. 03, 2012 Rise Set
Actual Time 7:22 AM CDT 6:56 PM CDT
Civil Twilight 6:53 AM CDT 7:26 PM CDT
Nautical Twilight 6:18 AM CDT 8:00 PM CDT
Astronomical Twilight 5:43 AM CDT 8:35 PM CDT
Moon 8:36 PM CDT (10/3) 10:59 AM CDT (10/3)
Length of Visible Light 12h 33m
Length of Day
11h 33m
Waning Gibbous, 88% of the Moon is Illuminated
Oct 3
Waning Gibbous
Oct 8
Last Quarter
Oct 15
New
Oct 21
First Quarter
Oct 29
Full

Hourly Weather History & Observations

Time (CDT) Temp. Windchill Dew Point Humidity Pressure Visibility Wind Dir Wind Speed Gust Speed Precip Events Conditions
12:13 AM 51.8 °F - 26.6 °F 38% 29.85 in 10.0 mi South 8.1 mph - N/A   Clear
12:34 AM 50.0 °F - 26.6 °F 40% 29.85 in 10.0 mi South 8.1 mph - N/A   Clear
12:53 AM 51.8 °F - 26.6 °F 38% 29.85 in 10.0 mi South 9.2 mph - N/A   Clear
1:13 AM 48.2 °F - 26.6 °F 43% 29.85 in 10.0 mi South 8.1 mph - N/A   Clear
1:34 AM 48.2 °F - 26.6 °F 43% 29.85 in 10.0 mi South 6.9 mph - N/A   Clear
1:53 AM 50.0 °F - 26.6 °F 40% 29.85 in 10.0 mi South 6.9 mph - N/A   Clear
2:13 AM 48.2 °F - 26.6 °F 43% 29.85 in 10.0 mi South 6.9 mph - N/A   Clear
2:34 AM 48.2 °F - 26.6 °F 43% 29.85 in 10.0 mi South 6.9 mph - N/A   Clear
2:53 AM 48.2 °F - 26.6 °F 43% 29.85 in 10.0 mi South 6.9 mph - N/A   Clear
3:13 AM 50.0 °F - 26.6 °F 40% 29.84 in 10.0 mi South 10.4 mph - N/A   Clear
3:34 AM 48.2 °F - 28.4 °F 46% 29.84 in 10.0 mi SSW 6.9 mph - N/A   Clear
3:53 AM 48.2 °F - 28.4 °F 46% 29.85 in 10.0 mi SSW 6.9 mph - N/A   Clear
4:13 AM 46.4 °F 43.5 °F 28.4 °F 50% 29.85 in 10.0 mi SW 5.8 mph - N/A   Clear
4:33 AM 48.2 °F - 28.4 °F 46% 29.85 in 10.0 mi SSW 3.5 mph - N/A   Clear
4:53 AM 48.2 °F - 28.4 °F 46% 29.85 in 10.0 mi South 3.5 mph - N/A   Clear
5:14 AM 46.4 °F 45.2 °F 28.4 °F 50% 29.85 in 10.0 mi South 3.5 mph - N/A   Clear
5:33 AM 46.4 °F 44.3 °F 28.4 °F 50% 29.85 in 10.0 mi South 4.6 mph - N/A   Clear
5:53 AM 44.6 °F 40.7 °F 28.4 °F 53% 29.86 in 10.0 mi South 6.9 mph - N/A   Clear
6:13 AM 46.4 °F - 28.4 °F 50% 29.86 in 10.0 mi Calm Calm - N/A   Clear
6:33 AM 48.2 °F - 28.4 °F 46% 29.86 in 10.0 mi Calm Calm - N/A   Clear
6:53 AM 46.4 °F - 28.4 °F 50% 29.87 in 10.0 mi Calm Calm - N/A   Clear
7:14 AM 48.2 °F - 28.4 °F 46% 29.87 in 10.0 mi Calm Calm - N/A   Clear
7:33 AM 48.2 °F - 28.4 °F 46% 29.87 in 10.0 mi Calm Calm - N/A   Clear
7:53 AM 48.2 °F - 28.4 °F 46% 29.87 in 10.0 mi Calm Calm - N/A   Clear
8:14 AM 48.2 °F - 30.2 °F 50% 29.87 in 10.0 mi SE 4.6 mph - N/A   Clear
8:33 AM 48.2 °F - 33.8 °F 58% 29.87 in 10.0 mi NNE 4.6 mph - N/A   Clear
8:53 AM 51.8 °F - 33.8 °F 50% 29.88 in 10.0 mi NE 4.6 mph - N/A   Clear
9:14 AM 53.6 °F - 30.2 °F 41% 29.88 in 10.0 mi NE 3.5 mph - N/A   Clear
9:33 AM 55.4 °F - 30.2 °F 38% 29.88 in 10.0 mi NE 3.5 mph - N/A   Clear
9:53 AM 57.2 °F - 30.2 °F 36% 29.87 in 10.0 mi East 6.9 mph - N/A   Clear
10:14 AM 60.8 °F - 30.2 °F 31% 29.86 in 10.0 mi East 5.8 mph - N/A   Clear
10:33 AM 62.6 °F - 30.2 °F 30% 29.87 in 10.0 mi East 4.6 mph - N/A   Clear
10:53 AM 64.4 °F - 30.2 °F 28% 29.87 in 10.0 mi Calm Calm - N/A   Clear
11:14 AM 64.4 °F - 30.2 °F 28% 29.87 in 10.0 mi ENE 4.6 mph - N/A   Clear
11:33 AM 66.2 °F - 30.2 °F 26% 29.86 in 10.0 mi ENE 8.1 mph - N/A   Clear
11:53 AM 69.8 °F - 30.2 °F 23% 29.85 in 10.0 mi East 8.1 mph - N/A   Clear
12:14 PM 71.6 °F - 28.4 °F 20% 29.84 in 10.0 mi East 12.7 mph - N/A   Clear
12:33 PM 71.6 °F - 30.2 °F 22% 29.84 in 10.0 mi East 13.8 mph - N/A   Clear
12:53 PM 71.6 °F - 32.0 °F 23% 29.84 in 10.0 mi ESE 12.7 mph 18.4 mph N/A   Clear
1:14 PM 73.4 °F - 33.8 °F 23% 29.83 in 10.0 mi East 12.7 mph - N/A   Clear
1:33 PM 73.4 °F - 33.8 °F 23% 29.82 in 10.0 mi ESE 12.7 mph 17.3 mph N/A   Clear
1:53 PM 73.4 °F - 32.0 °F 22% 29.82 in 10.0 mi ESE 10.4 mph - N/A   Unknown
2:13 PM 75.2 °F - 30.2 °F 19% 29.81 in 10.0 mi SSE 10.4 mph 18.4 mph N/A   Clear
2:34 PM 78.8 °F - 28.4 °F 16% 29.81 in 10.0 mi SSE 15.0 mph 18.4 mph N/A   Clear
2:53 PM 77.0 °F - 26.6 °F 16% 29.82 in 10.0 mi SSE 17.3 mph 23.0 mph N/A   Clear
3:13 PM 75.2 °F - 26.6 °F 17% 29.81 in 10.0 mi SSE 12.7 mph 17.3 mph N/A   Clear
3:34 PM 78.8 °F - 28.4 °F 16% 29.81 in 10.0 mi SE 13.8 mph 18.4 mph N/A   Clear
3:53 PM 73.4 °F - 26.6 °F 18% 29.81 in 10.0 mi SSE 12.7 mph 18.4 mph N/A   Clear
4:13 PM 73.4 °F - 28.4 °F 19% 29.81 in 10.0 mi SSE 8.1 mph - N/A   Clear
4:34 PM 73.4 °F - 26.6 °F 18% 29.81 in 10.0 mi ESE 13.8 mph 17.3 mph N/A   Clear
4:53 PM 73.4 °F - 26.6 °F 18% 29.80 in 7.0 mi SE 12.7 mph - N/A   Clear
5:13 PM 73.4 °F - 26.6 °F 18% 29.81 in 10.0 mi SE 9.2 mph - N/A   Clear
5:34 PM 71.6 °F - 28.4 °F 20% 29.80 in 7.0 mi East 11.5 mph - N/A   Clear
5:53 PM 71.6 °F - 28.4 °F 20% 29.81 in 10.0 mi ESE 9.2 mph - N/A   Clear
6:13 PM 71.6 °F - 28.4 °F 20% 29.81 in 7.0 mi ESE 8.1 mph - N/A   Clear
6:34 PM 69.8 °F - 30.2 °F 23% 29.82 in 10.0 mi East 6.9 mph - N/A   Clear
6:53 PM 66.2 °F - 30.2 °F 26% 29.81 in 10.0 mi East 9.2 mph - N/A   Clear
7:13 PM 66.2 °F - 30.2 °F 26% 29.82 in 7.0 mi East 6.9 mph - N/A   Clear
7:34 PM 64.4 °F - 30.2 °F 28% 29.83 in 10.0 mi East 5.8 mph - N/A   Clear
7:53 PM 62.6 °F - 30.2 °F 30% 29.82 in 10.0 mi East 5.8 mph - N/A   Clear
8:13 PM 59.0 °F - 33.8 °F 39% 29.82 in 7.0 mi ENE 6.9 mph - N/A   Clear
8:34 PM 57.2 °F - 32.0 °F 38% 29.82 in 10.0 mi East 8.1 mph - N/A   Clear
8:53 PM 59.0 °F - 33.8 °F 39% 29.81 in 10.0 mi ENE 8.1 mph - N/A   Clear
9:13 PM 60.8 °F - 33.8 °F 36% 29.81 in 10.0 mi East 8.1 mph - N/A   Clear
9:34 PM 62.6 °F - 33.8 °F 34% 29.80 in 7.0 mi East 8.1 mph - N/A   Scattered Clouds
9:53 PM 62.6 °F - 35.6 °F 37% 29.79 in 10.0 mi East 9.2 mph - N/A   Scattered Clouds
10:13 PM 62.6 °F - 35.6 °F 37% 29.79 in 10.0 mi East 9.2 mph - N/A   Scattered Clouds
10:33 PM 62.6 °F - 35.6 °F 37% 29.78 in 10.0 mi East 8.1 mph - N/A   Scattered Clouds
10:53 PM 62.6 °F - 37.4 °F 39% 29.78 in 10.0 mi East 9.2 mph - N/A   Mostly Cloudy
11:14 PM 60.8 °F - 37.4 °F 42% 29.76 in 10.0 mi East 10.4 mph - N/A   Scattered Clouds
11:33 PM 60.8 °F - 37.4 °F 42% 29.75 in 10.0 mi ESE 10.4 mph - N/A   Clear
11:53 PM 59.0 °F - 37.4 °F 45% 29.74 in 10.0 mi East 10.4 mph - N/A   Clear